Location: Elbart
(49.6135°N, 11.9134°E)
Time: 03:05:05
(UTC+00:00)

Cosmos 2100 Rocket - Pass Details

Date: 09 April 2020
Orbit: 957 x 1000 km, 82.9° (Epoch: 04 June)

Event Time Altitude Azimuth Distance (km) Brightness Sun altitude
Rises 22:12:21 0° 351° (N) 3,670 8.1 -30.8°
Reaches altitude 10° 22:14:52 10° 354° (N) 2,725 7.2 -31.0°
Enters shadow 22:20:36 69° 43° (NE) 1,046 4.1 -31.2°
